Location: Palomar Mountain Lodge
(33.3110°N, 116.8495°W)
Time: 06:53:20
(UTC-07:00)

COSMOS 2487 - Pass Details

Date: 12 July 2018
Orbit: 451 x 456 km, 74.7° (Epoch: 22 July)

Event Time Altitude Azimuth Distance (km) Brightness Sun altitude
Rises 20:29:36 0° 351° (N) 2,470 6.8 -6.5°
Reaches altitude 10° 20:31:46 10° 359° (N) 1,592 5.7 -6.9°
Maximum altitude 20:35:07 43° 72° (ENE) 651 2.9 -7.4°
Drops below altitude 10° 20:38:27 10° 145° (SE) 1,578 4.6 -8.0°
Enters shadow 20:38:41 - 146° (SE) 1,671 4.7 -8.1°
